Covington, KY

1:02 PM EDT on July 26, 2017 (GMT -0400)
Cincinnati-Northern KY International

Weather History for KCVG - November, 2011

Change the Weather History Date:

Tuesday, November 29, 2011

  Actual Average Record
Temperature  
Mean Temperature 43 °F 39 °F  
Max Temperature 52 °F 47 °F 73 °F (1927)
Min Temperature 33 °F 32 °F 3 °F (1976)
Degree Days  
Heating Degree Days 22 26  
Month to date heating degree days 438 572  
Since 1 July heating degree days 833 934  
Cooling Degree Days 0 0  
Month to date cooling degree days 1 0  
Year to date cooling degree days 1349 1121  
Moisture  
Dew Point 36 °F    
Average Humidity 83    
Maximum Humidity 96    
Minimum Humidity 70    
Precipitation  
Precipitation 0.31 in 0.13 in 0.86 in (2001)
Month to date precipitation 8.33 3.32  
Year to date precipitation 66.76 39.04  
Snow  
Snow 0.40 in 0.10 in 3.70 in (1952)
Month to date snowfall 0.4 0.4  
Since 1 July snowfall 0.4 0.8  
Since 1 September snowfall 0.4 0.8  
Snow Depth 0.00 in    
Sea Level Pressure  
Sea Level Pressure 29.71 in    
Wind  
Wind Speed 11 mph (WSW)    
Max Wind Speed 21 mph    
Max Gust Speed 28 mph    
Visibility 7 miles    
Events Rain , Snow    
T = Trace of Precipitation, MM = Missing Value Source: NWS Daily Summary

Daily Weather History Graph

Daily Weather History Graph

Search for Another Location

Airport or City:

Trip Planner

Search our weather history database for the weather conditions in past years. The results will help you decide how hot, cold, wet, or windy it might be!

Date:

Astronomy

Nov. 29, 2011 Rise Set
Actual Time 7:36 AM EST 5:17 PM EST
Civil Twilight 7:06 AM EST 5:46 PM EST
Nautical Twilight 6:33 AM EST 6:19 PM EST
Astronomical Twilight 6:01 AM EST 6:51 PM EST
Moon 11:23 AM EST (11/29) 10:08 PM EST (11/29)
Length of Visible Light 10h 39m
Length of Day
9h 40m
Waxing Crescent, 24% of the Moon is Illuminated
Nov 29
Waxing Crescent
Dec 2
First Quarter
Dec 10
Full
Dec 17
Last Quarter
Dec 24
New

Hourly Weather History & Observations

Time (EST) Temp. Windchill Dew Point Humidity Pressure Visibility Wind Dir Wind Speed Gust Speed Precip Events Conditions
12:52 AM 50.0 °F - 48.9 °F 96% 29.66 in 4.0 mi SW 9.2 mph 20.7 mph 0.04 in Rain Light Rain
1:52 AM 50.0 °F - 48.2 °F 94% 29.65 in 10.0 mi SW 5.8 mph - N/A Rain Light Rain
2:27 AM 48.2 °F - 46.4 °F 93% 29.64 in 10.0 mi WSW 3.5 mph - 0.00 in Rain Light Rain
2:52 AM 48.0 °F - 46.9 °F 96% 29.65 in 9.0 mi WSW 5.8 mph - 0.00 in Rain Light Rain
3:52 AM 45.0 °F 38.9 °F 43.0 °F 93% 29.64 in 4.0 mi SW 12.7 mph 23.0 mph 0.02 in Rain Light Rain
4:52 AM 42.1 °F 35.7 °F 39.9 °F 92% 29.66 in 7.0 mi SW 11.5 mph 17.3 mph 0.04 in Rain Light Rain
5:52 AM 42.1 °F 36.6 °F 39.0 °F 89% 29.67 in 10.0 mi SSW 9.2 mph 18.4 mph 0.01 in Rain Light Rain
6:52 AM 42.1 °F 36.6 °F 37.9 °F 85% 29.66 in 10.0 mi SSW 9.2 mph - 0.00 in   Overcast
7:52 AM 39.9 °F 32.5 °F 36.0 °F 86% 29.67 in 10.0 mi SW 12.7 mph - N/A   Mostly Cloudy
9:37 AM 39.2 °F 32.5 °F 35.6 °F 87% 29.71 in 10.0 mi SSW 10.4 mph 16.1 mph N/A   Overcast
9:52 AM 39.9 °F 32.9 °F 36.0 °F 86% 29.71 in 10.0 mi SSW 11.5 mph - 0.00 in Rain Light Rain
10:23 AM 41.0 °F 34.3 °F 35.6 °F 81% 29.72 in 10.0 mi SW 11.5 mph - 0.00 in   Overcast
10:52 AM 41.0 °F 34.3 °F 35.1 °F 79% 29.71 in 10.0 mi SW 11.5 mph - 0.00 in   Overcast
11:01 AM 41.0 °F 34.3 °F 35.6 °F 81% 29.72 in 10.0 mi SW 11.5 mph 20.7 mph N/A   Overcast
11:52 AM 43.0 °F 36.0 °F 36.0 °F 76% 29.70 in 10.0 mi SSW 13.8 mph 20.7 mph N/A   Overcast
12:40 PM 42.8 °F 36.2 °F 33.8 °F 70% 29.70 in 10.0 mi SSW 12.7 mph - N/A   Overcast
12:52 PM 42.1 °F 36.6 °F 34.0 °F 73% 29.70 in 10.0 mi SW 9.2 mph 18.4 mph N/A   Overcast
1:52 PM 39.9 °F 32.1 °F 33.1 °F 77% 29.68 in 10.0 mi SW 13.8 mph 21.9 mph N/A   Overcast
2:52 PM 39.9 °F 32.1 °F 33.1 °F 77% 29.66 in 10.0 mi SW 13.8 mph 18.4 mph 0.00 in   Overcast
3:52 PM 39.0 °F 32.8 °F 34.0 °F 82% 29.70 in 7.0 mi SW 9.2 mph - 0.00 in   Light Drizzle
4:08 PM 37.4 °F 29.3 °F 35.6 °F 93% 29.69 in 4.0 mi SW 12.7 mph 19.6 mph 0.00 in   Light Drizzle
4:52 PM 37.9 °F 30.0 °F 35.1 °F 89% 29.71 in 4.0 mi SW 12.7 mph 19.6 mph 0.01 in Rain Light Rain
5:21 PM 37.4 °F 29.8 °F 35.6 °F 93% 29.70 in 5.0 mi SW 11.5 mph - 0.00 in Rain Light Rain
5:52 PM 37.4 °F 29.8 °F 35.6 °F 93% 29.71 in 5.0 mi WSW 11.5 mph - N/A Rain Light Rain
6:48 PM 33.8 °F 24.8 °F 32.0 °F 93% 29.72 in 2.0 mi West 12.7 mph - 0.05 in Snow Light Snow
6:52 PM 33.1 °F 26.1 °F 32.0 °F 96% 29.73 in 2.0 mi West 8.1 mph - 0.06 in Snow Light Snow
7:13 PM 33.8 °F 25.8 °F 32.0 °F 93% 29.73 in 1.5 mi West 10.4 mph 17.3 mph 0.01 in Snow Light Snow
7:52 PM 33.1 °F 25.5 °F 32.0 °F 96% 29.75 in 1.8 mi West 9.2 mph - 0.04 in Snow Light Snow
8:14 PM 33.8 °F 25.3 °F 32.0 °F 93% 29.74 in 3.0 mi West 11.5 mph - N/A Snow Light Snow
8:52 PM 33.1 °F 23.9 °F 32.0 °F 96% 29.76 in 2.5 mi West 12.7 mph - 0.02 in Snow Light Snow
9:21 PM 33.8 °F 24.3 °F 32.0 °F 93% 29.75 in 3.0 mi West 13.8 mph - 0.01 in Snow Light Snow
9:52 PM 34.0 °F 24.6 °F 32.0 °F 92% 29.78 in 5.0 mi WNW 13.8 mph - 0.01 in   Light Drizzle
10:41 PM 35.6 °F 26.6 °F 32.0 °F 87% 29.77 in 10.0 mi WNW 13.8 mph 25.3 mph 0.00 in   Overcast
10:52 PM 35.1 °F 25.2 °F 32.0 °F 89% 29.79 in 10.0 mi WNW 16.1 mph 24.2 mph 0.00 in   Overcast
11:52 PM 35.1 °F 25.2 °F 33.1 °F 92% 29.80 in 10.0 mi WNW 16.1 mph 24.2 mph 0.00 in Rain Light Rain